Tracking 18852 objects as of 23-Nov-2017
HD Live streaming from Space Station
objects crossing your sky now

COSMOS 574

Track COSMOS 574 now!
10-day predictions
COSMOS 574 is classified as:


NORAD ID: 6707
Int'l Code: 1973-042A
Perigee: 984.3 km
Apogee: 1,013.9 km
Inclination: 82.9 °
Period: 104.9 minutes
Semi major axis: 7370 km
RCS: 1.6655 m2 (large)
Launch date: June 20, 1973
Source: Commonwealth of Independent States (former USSR) (CIS)
Launch site: PLESETSK MISSILE AND SPACE COMPLEX (PKMTR)
aabbcc
Your satellite tracking list
Your tracking list is empty




NASA's NSSDC Master Catalog

Two Line Element Set (TLE):
1 06707U 73042A   17327.14156694  .00000016  00000-0  13707-5 0  9992
2 06707  82.9482 337.7620 0020049 296.1280 128.1838 13.72126301661950
Source of the keplerian elements: AFSPC